Mineral Wells, TX

6:42 PM CDT on August 28, 2016 (GMT -0500)
Mineral Wells

Weather History for KMWL - March, 2014

Change the Weather History Date:

Sunday, March 30, 2014

  Actual Average Record
Temperature  
Mean Temperature 62 °F -  
Max Temperature 82 °F 70 °F 88 °F (2008)
Min Temperature 43 °F 48 °F 28 °F (2003)
Degree Days  
Heating Degree Days 2    
Growing Degree Days 12 (Base 50)    
Moisture  
Dew Point 35 °F    
Average Humidity 39    
Maximum Humidity 68    
Minimum Humidity 15    
Precipitation  
Precipitation 0.00 in - - ()
Sea Level Pressure  
Sea Level Pressure 30.04 in    
Wind  
Wind Speed 13 mph (SSE)    
Max Wind Speed 26 mph    
Max Gust Speed 33 mph    
Visibility 10 miles    
Events      
Averages and records for this station are not official NWS values.
T = Trace of Precipitation, MM = Missing Value Source: NWS Daily Summary

Daily Weather History Graph

Daily Weather History Graph

Search for Another Location

Airport or City:

Trip Planner

Search our weather history database for the weather conditions in past years. The results will help you decide how hot, cold, wet, or windy it might be!

Date:

Astronomy

Mar. 30, 2014 Rise Set
Actual Time 7:22 AM CDT 7:50 PM CDT
Civil Twilight 6:58 AM CDT 8:15 PM CDT
Nautical Twilight 6:29 AM CDT 8:44 PM CDT
Astronomical Twilight 5:59 AM CDT 9:14 PM CDT
Moon 7:09 AM CDT (3/30) 8:03 PM CDT (3/30)
Length of Visible Light 13h 17m
Length of Day
12h 28m
Waning Crescent, 0% of the Moon is Illuminated
Mar 30
Waning Crescent
Mar 30
New
Apr 7
First Quarter
Apr 15
Full
Apr 22
Last Quarter

Hourly Weather History & Observations

Time (CDT) Temp. Windchill Dew Point Humidity Pressure Visibility Wind Dir Wind Speed Gust Speed Precip Events Conditions
12:53 AM 53.1 °F - 28.9 °F 40% 30.18 in 10.0 mi SE 9.2 mph - N/A   Clear
1:53 AM 52.0 °F - 30.0 °F 43% 30.17 in 10.0 mi SE 11.5 mph - N/A   Clear
2:53 AM 51.1 °F - 32.0 °F 48% 30.15 in 10.0 mi SE 8.1 mph - N/A   Clear
3:53 AM 50.0 °F - 33.1 °F 52% 30.15 in 10.0 mi SSE 6.9 mph - N/A   Clear
4:53 AM 45.0 °F - 33.1 °F 63% 30.13 in 10.0 mi North - - N/A   Clear
5:53 AM 44.1 °F 38.6 °F 34.0 °F 68% 30.14 in 10.0 mi SE 10.4 mph - N/A   Clear
6:53 AM 43.0 °F 38.8 °F 33.1 °F 68% 30.15 in 10.0 mi ESE 6.9 mph - N/A   Clear
7:53 AM 46.0 °F 41.0 °F 35.1 °F 66% 30.15 in 10.0 mi SE 10.4 mph - N/A   Clear
8:53 AM 52.0 °F - 36.0 °F 54% 30.16 in 10.0 mi SSE 9.2 mph - N/A   Clear
9:53 AM 60.1 °F - 35.1 °F 39% 30.16 in 10.0 mi SSE 11.5 mph - N/A   Clear
10:53 AM 69.1 °F - 33.1 °F 26% 30.14 in 10.0 mi South 17.3 mph 27.6 mph N/A   Clear
11:53 AM 73.0 °F - 33.1 °F 23% 30.12 in 10.0 mi SSE 20.7 mph 27.6 mph N/A   Clear
12:53 PM 75.9 °F - 32.0 °F 20% 30.08 in 10.0 mi SSE 19.6 mph 28.8 mph N/A   Clear
1:53 PM 78.1 °F - 33.1 °F 19% 30.04 in 10.0 mi South 24.2 mph 31.1 mph N/A   Clear
2:53 PM 80.1 °F - 30.0 °F 16% 29.99 in 10.0 mi South 18.4 mph - N/A   Clear
3:53 PM 82.0 °F - 30.0 °F 15% 29.94 in 10.0 mi South 19.6 mph 26.5 mph N/A   Clear
4:53 PM 81.0 °F - 30.9 °F 16% 29.91 in 10.0 mi SSE 26.5 mph 33.4 mph N/A   Clear
5:53 PM 80.1 °F - 33.1 °F 18% 29.90 in 10.0 mi SSE 21.9 mph 28.8 mph N/A   Clear
6:53 PM 75.9 °F - 36.0 °F 23% 29.89 in 10.0 mi SSE 17.3 mph 28.8 mph N/A   Clear
7:53 PM 73.0 °F - 37.9 °F 28% 29.88 in 10.0 mi SSE 13.8 mph - N/A   Clear
8:53 PM 70.0 °F - 42.1 °F 36% 29.89 in 10.0 mi SSE 16.1 mph 24.2 mph N/A   Clear
9:53 PM 66.9 °F - 43.0 °F 42% 29.90 in 10.0 mi SE 13.8 mph - N/A   Clear
10:53 PM 66.9 °F - 46.9 °F 49% 29.89 in 10.0 mi SSE 18.4 mph 27.6 mph N/A   Clear
11:53 PM 64.9 °F - 46.9 °F 52% 29.89 in 10.0 mi SSE 18.4 mph 25.3 mph N/A   Clear